Weather History for KMCN - July, 2013

Change the Weather History Date:

Saturday, July 13, 2013

  Actual Average Record
Temperature  
Mean Temperature 77 °F 82 °F  
Max Temperature 83 °F 93 °F 108 °F (1980)
Min Temperature 70 °F 71 °F 61 °F (1898)
Degree Days  
Heating Degree Days 0 0  
Month to date heating degree days 0 0  
Since 1 June heating degree days 0 0  
Since 1 July heating degree days 0 0  
Cooling Degree Days 12 17  
Month to date cooling degree days 181 215  
Year to date cooling degree days 787 947  
Since 1 June cooling degree days 577 634  
Growing Degree Days 26 (Base 50)    
Moisture  
Dew Point 71 °F    
Average Humidity 87    
Maximum Humidity 100    
Minimum Humidity 74    
Precipitation  
Precipitation 0.11 in 0.17 in 4.47 in (2010)
Month to date precipitation 5.30 2.10  
Year to date precipitation 46.24 24.99  
Sea Level Pressure  
Sea Level Pressure 29.97 in    
Wind  
Wind Speed 6 mph (ENE)    
Max Wind Speed 14 mph    
Max Gust Speed 20 mph    
Visibility 10 miles    
Events Rain    
T = Trace of Precipitation, MM = Missing Value Source: NWS Daily Summary

Daily Weather History Graph

Daily Weather History Graph

Search for Another Location

Airport or City:

Trip Planner

Search our weather history database for the weather conditions in past years. The results will help you decide how hot, cold, wet, or windy it might be!

Date:

Astronomy

Jul. 13, 2013 Rise Set
Actual Time 6:36 AM EDT 8:43 PM EDT
Civil Twilight 6:08 AM EDT 9:11 PM EDT
Nautical Twilight 5:34 AM EDT 9:45 PM EDT
Astronomical Twilight 4:57 AM EDT 10:22 PM EDT
Moon 11:31 AM EDT (7/13) 11:45 PM EDT (7/13)
Length of Visible Light 15h 03m
Length of Day
14h 07m
Waxing Crescent, 25% of the Moon is Illuminated
Jul 13
Waxing Crescent
Jul 15
First Quarter
Jul 22
Full
Jul 29
Last Quarter
Aug 6
New

Hourly Weather History & Observations

Time (EDT) Temp. Heat Index Dew Point Humidity Pressure Visibility Wind Dir Wind Speed Gust Speed Precip Events Conditions
12:53 AM 75.0 °F - 73.9 °F 96% 29.94 in 10.0 mi ENE 4.6 mph - N/A   Clear
1:53 AM 72.0 °F - 69.1 °F 91% 29.90 in 10.0 mi WSW 6.9 mph - N/A   Partly Cloudy
2:31 AM 71.6 °F - 69.8 °F 94% 29.93 in 10.0 mi Calm Calm - N/A   Mostly Cloudy
2:53 AM 72.0 °F - 70.0 °F 93% 29.90 in 10.0 mi SE 4.6 mph - N/A   Mostly Cloudy
3:33 AM 73.4 °F - 69.8 °F 88% 29.93 in 10.0 mi North 5.8 mph - N/A   Overcast
3:53 AM 72.0 °F - 69.1 °F 91% 29.91 in 7.0 mi ENE 9.2 mph - 0.01 in Rain Light Rain
4:14 AM 71.6 °F - 69.8 °F 94% 29.91 in 10.0 mi East 6.9 mph - 0.00 in   Mostly Cloudy
4:53 AM 71.1 °F - 69.1 °F 93% 29.90 in 10.0 mi Calm Calm - 0.00 in   Clear
5:12 AM 71.6 °F - 69.8 °F 94% 29.92 in 10.0 mi NE 4.6 mph - N/A   Scattered Clouds
5:22 AM 71.6 °F - 69.8 °F 94% 29.92 in 10.0 mi NE 5.8 mph - N/A   Mostly Cloudy
5:32 AM 71.6 °F - 69.8 °F 94% 29.92 in 10.0 mi NE 4.6 mph - N/A   Mostly Cloudy
5:53 AM 71.1 °F - 70.0 °F 96% 29.92 in 10.0 mi NE 5.8 mph - N/A   Overcast
6:02 AM 71.6 °F - 69.8 °F 94% 29.94 in 10.0 mi NE 5.8 mph - N/A   Mostly Cloudy
6:10 AM 71.6 °F - 69.8 °F 94% 29.94 in 10.0 mi NNE 6.9 mph - N/A   Scattered Clouds
6:53 AM 71.1 °F - 70.0 °F 96% 29.93 in 10.0 mi East 3.5 mph - N/A   Clear
7:46 AM 71.6 °F - 71.6 °F 100% 29.97 in 10.0 mi ENE 4.6 mph - N/A   Mostly Cloudy
7:53 AM 72.0 °F - 71.1 °F 97% 29.96 in 10.0 mi ENE 5.8 mph - N/A   Mostly Cloudy
8:08 AM 71.6 °F - 71.6 °F 100% 29.98 in 10.0 mi East 6.9 mph - N/A   Overcast
8:36 AM 73.4 °F - 71.6 °F 94% 29.98 in 10.0 mi East 6.9 mph - N/A   Overcast
8:43 AM 73.4 °F - 71.6 °F 94% 29.98 in 10.0 mi East 6.9 mph - N/A   Overcast
8:53 AM 75.0 °F - 72.0 °F 90% 29.97 in 10.0 mi East 8.1 mph - N/A   Overcast
9:53 AM 77.0 °F - 71.1 °F 82% 30.00 in 10.0 mi ESE 9.2 mph - N/A   Overcast
10:18 AM 75.2 °F - 71.6 °F 89% 30.01 in 10.0 mi ESE 6.9 mph - N/A   Overcast
10:49 AM 78.8 °F - 71.6 °F 78% 30.01 in 10.0 mi East 8.1 mph - N/A   Overcast
10:53 AM 78.1 °F - 71.1 °F 79% 30.00 in 10.0 mi ESE 9.2 mph - N/A   Overcast
11:33 AM 80.6 °F 84.6 °F 71.6 °F 74% 30.01 in 10.0 mi SE 8.1 mph - N/A   Mostly Cloudy
11:53 AM 79.0 °F - 71.1 °F 77% 30.00 in 10.0 mi East 10.4 mph - N/A   Overcast
12:20 PM 80.6 °F 84.6 °F 71.6 °F 74% 30.01 in 10.0 mi ESE 8.1 mph - N/A   Mostly Cloudy
12:53 PM 81.0 °F 84.9 °F 71.1 °F 72% 30.00 in 10.0 mi East 8.1 mph - N/A   Mostly Cloudy
1:53 PM 75.9 °F - 73.0 °F 91% 30.01 in 10.0 mi ENE 4.6 mph - 0.03 in   Overcast
2:21 PM 75.2 °F - 71.6 °F 89% 30.02 in 10.0 mi ESE 11.5 mph - N/A   Mostly Cloudy
2:40 PM 73.4 °F - 71.6 °F 94% 30.01 in 5.0 mi ESE 6.9 mph - 0.02 in Rain Light Rain
2:53 PM 73.0 °F - 72.0 °F 96% 29.99 in 9.0 mi ESE 8.1 mph - 0.03 in Rain Light Rain
3:53 PM 73.9 °F - 71.1 °F 91% 29.99 in 10.0 mi East 5.8 mph - 0.00 in Rain Light Rain
4:11 PM 73.4 °F - 71.6 °F 94% 30.00 in 10.0 mi ENE 6.9 mph - 0.02 in Rain Light Rain
4:25 PM 73.4 °F - 71.6 °F 94% 30.00 in 10.0 mi East 8.1 mph - 0.02 in   Overcast
4:48 PM 73.4 °F - 73.4 °F 100% 29.99 in 10.0 mi ENE 8.1 mph - 0.02 in   Scattered Clouds
4:53 PM 75.0 °F - 73.0 °F 94% 29.99 in 10.0 mi ENE 5.8 mph - 0.02 in   Scattered Clouds
5:53 PM 75.0 °F - 73.0 °F 94% 29.99 in 10.0 mi ENE 5.8 mph - 0.00 in   Mostly Cloudy
6:53 PM 75.0 °F - 72.0 °F 90% 30.01 in 10.0 mi North 3.5 mph - N/A   Overcast
7:53 PM 75.0 °F - 73.0 °F 94% 30.00 in 10.0 mi North 3.5 mph - N/A   Scattered Clouds
8:53 PM 73.9 °F - 73.0 °F 97% 30.00 in 10.0 mi NNE 4.6 mph - N/A   Overcast
9:37 PM 73.4 °F - 73.4 °F 100% 30.02 in 9.0 mi NE 4.6 mph - N/A   Mostly Cloudy
9:45 PM 73.4 °F - 73.4 °F 100% 30.02 in 9.0 mi NE 4.6 mph - N/A   Mostly Cloudy
9:53 PM 73.9 °F - 73.0 °F 97% 30.01 in 10.0 mi NE 4.6 mph - N/A   Mostly Cloudy
10:53 PM 73.0 °F - 73.0 °F 100% 30.02 in 9.0 mi ENE 5.8 mph - 0.02 in   Mostly Cloudy
11:53 PM 73.0 °F - 72.0 °F 96% 30.04 in 8.0 mi East 3.5 mph - N/A   Mostly Cloudy